Appleton, WI

1:03 AM CST on December 16, 2019 (GMT -0600)
Outagamie County Regional

Weather History for KATW - October, 2019

Change the Weather History Date:

Monday, October 21, 2019

  Actual Average Record
Temperature  
Mean Temperature 52 °F -  
Max Temperature 59 °F 55 °F 82 °F (1953)
Min Temperature 46 °F 38 °F 23 °F (1960)
Degree Days  
Heating Degree Days 12    
Growing Degree Days 2 (Base 50)    
Moisture  
Dew Point 41 °F    
Average Humidity 70    
Maximum Humidity 100    
Minimum Humidity 54    
Precipitation  
Precipitation 0.00 in - - ()
Sea Level Pressure  
Sea Level Pressure 29.57 in    
Wind  
Wind Speed 9 mph ()    
Max Wind Speed 29 mph    
Max Gust Speed 50 mph    
Visibility 8.8 miles    
Events Rain    
Averages and records for this station are not official NWS values.
T = Trace of Precipitation, MM = Missing Value Source: Averaged Metar Reports

Daily Weather History Graph

Daily Weather History Graph

Search for Another Location

Airport or City:

Astronomy

Oct. 21, 2019 Rise Set
Actual Time 7:16 AM CDT 6:00 PM CDT
Civil Twilight 6:46 AM CDT 6:29 PM CDT
Nautical Twilight 6:13 AM CDT 7:03 PM CDT
Astronomical Twilight 5:39 AM CDT 7:37 PM CDT
Moon No Moon Rise 2:42 PM CDT (10/21)
Length of Visible Light 11h 43m
Length of Day
10h 44m
Waning Gibbous, 48% of the Moon is Illuminated
Oct 21
Waning Gibbous
Oct 27
New
Nov 4
First Quarter
Nov 12
Full
Nov 19
Last Quarter

Hourly Weather History & Observations

Time (CDT) Temp. Windchill Dew Point Humidity Pressure Visibility Wind Dir Wind Speed Gust Speed Precip Events Conditions
12:15 AM 48.2 °F - 33.8 °F 58% 29.90 in 10.0 mi East 4.6 mph - N/A   Clear
12:35 AM 46.4 °F 44.3 °F 33.8 °F 62% 29.89 in 10.0 mi ENE 4.6 mph - N/A   Clear
12:55 AM 46.4 °F - 33.8 °F 62% 29.89 in 10.0 mi Calm Calm - N/A   Clear
1:15 AM 46.4 °F 44.3 °F 33.8 °F 62% 29.88 in 10.0 mi ENE 4.6 mph - N/A   Clear
1:35 AM 46.4 °F 42.9 °F 33.8 °F 62% 29.87 in 10.0 mi ENE 6.9 mph - N/A   Clear
1:55 AM 46.4 °F 43.5 °F 33.8 °F 62% 29.86 in 5.0 mi East 5.8 mph - N/A   Haze
2:15 AM 46.4 °F 41.9 °F 33.8 °F 62% 29.83 in 7.0 mi East 9.2 mph - N/A   Clear
2:35 AM 46.4 °F 43.5 °F 33.8 °F 62% 29.85 in 7.0 mi East 5.8 mph - N/A   Mostly Cloudy
2:55 AM 46.4 °F 43.5 °F 35.6 °F 66% 29.84 in 7.0 mi East 5.8 mph - N/A   Overcast
3:15 AM 46.4 °F 42.9 °F 35.6 °F 66% 29.82 in 7.0 mi East 6.9 mph - N/A   Overcast
3:35 AM 46.4 °F 42.4 °F 37.4 °F 71% 29.82 in 10.0 mi East 8.1 mph - N/A   Overcast
3:55 AM 48.2 °F - 37.4 °F 66% 29.81 in 10.0 mi East 9.2 mph - N/A   Overcast
4:15 AM 48.2 °F - 37.4 °F 66% 29.80 in 10.0 mi East 8.1 mph - N/A   Overcast
4:35 AM 48.2 °F - 39.2 °F 71% 29.78 in 10.0 mi East 10.4 mph - N/A   Overcast
4:55 AM 48.2 °F - 39.2 °F 71% 29.77 in 10.0 mi East 11.5 mph - N/A   Overcast
5:15 AM 48.2 °F - 41.0 °F 76% 29.76 in 10.0 mi East 8.1 mph - N/A   Scattered Clouds
5:20 AM 48.2 °F - 41.0 °F 76% 29.76 in 10.0 mi East 8.1 mph - N/A   Scattered Clouds
5:45 AM 50.0 °F - 41.0 °F 71% 29.73 in 10.0 mi East 10.4 mph - N/A   Mostly Cloudy
7:45 AM 51.8 °F - 42.8 °F 71% 29.65 in 10.0 mi East 11.5 mph 23.0 mph N/A   Overcast
8:45 AM 53.6 °F - 42.8 °F 67% 29.60 in 10.0 mi ESE 15.0 mph 27.6 mph N/A   Overcast
9:45 AM 53.6 °F - 42.8 °F 67% 29.54 in 10.0 mi East 16.1 mph 29.9 mph N/A   Overcast
10:45 AM 53.6 °F - 42.8 °F 67% 29.46 in 5.0 mi East 24.2 mph 31.1 mph N/A Rain Light Rain
11:15 AM 51.8 °F - 44.6 °F 76% 29.44 in 10.0 mi ESE 17.3 mph 27.6 mph N/A Rain Light Rain
11:30 AM 53.6 °F - 44.6 °F 72% 29.42 in 10.0 mi East 19.6 mph 32.2 mph N/A Rain Light Rain
11:45 AM 53.6 °F - 44.6 °F 72% 29.39 in 7.0 mi East 18.4 mph 27.6 mph N/A Rain Light Rain
12:00 PM 53.6 °F - 44.6 °F 72% 29.39 in 3.0 mi ESE 20.7 mph 28.8 mph N/A Rain Rain
12:45 PM 53.6 °F - 51.8 °F 94% 29.31 in 2.0 mi ESE 28.8 mph 49.5 mph N/A Rain Rain
1:45 PM 55.4 °F - 53.6 °F 94% 29.30 in 2.0 mi SE 26.5 mph 40.3 mph N/A Rain Rain
2:45 PM 55.4 °F - 55.4 °F 100% 29.29 in 7.0 mi SSE 20.7 mph 28.8 mph N/A Rain Light Rain
3:10 PM 55.4 °F - 55.4 °F 100% 29.28 in 10.0 mi SSE 17.3 mph - N/A   Mostly Cloudy
3:45 PM 57.2 °F - 57.2 °F 100% 29.29 in 10.0 mi SSE 18.4 mph 26.5 mph N/A   Mostly Cloudy
4:45 PM 59.0 °F - 57.2 °F 94% 29.29 in 10.0 mi SSE 11.5 mph - N/A   Scattered Clouds
5:45 PM 57.2 °F - 50.0 °F 77% 29.30 in 10.0 mi South 13.8 mph 23.0 mph N/A   Mostly Cloudy
6:45 PM 55.4 °F - 39.2 °F 54% 29.32 in 10.0 mi SSW 20.7 mph 27.6 mph N/A   Scattered Clouds
7:45 PM 51.8 °F - 37.4 °F 58% 29.36 in 10.0 mi SSW 15.0 mph 25.3 mph N/A   Scattered Clouds
8:45 PM 53.6 °F - 37.4 °F 54% 29.37 in 10.0 mi SSW 11.5 mph 17.3 mph N/A   Mostly Cloudy
9:45 PM 48.2 °F - 37.4 °F 66% 29.37 in 10.0 mi SSW 15.0 mph - N/A   Mostly Cloudy
10:45 PM 46.4 °F 40.1 °F 35.6 °F 66% 29.35 in 10.0 mi SSW 15.0 mph - N/A   Scattered Clouds
10:55 PM 46.4 °F 41.1 °F 33.8 °F 62% 29.35 in 10.0 mi South 11.5 mph - N/A   Mostly Cloudy
11:15 PM 46.4 °F 40.7 °F 33.8 °F 62% 29.35 in 10.0 mi South 12.7 mph - N/A   Mostly Cloudy
11:35 PM 46.4 °F 40.1 °F 33.8 °F 62% 29.34 in 10.0 mi South 15.0 mph 19.6 mph N/A   Overcast
11:55 PM 46.4 °F 40.1 °F 33.8 °F 62% 29.33 in 10.0 mi South 15.0 mph 20.7 mph N/A   Overcast